Meteo orario Albany

Oggi, 20 Gennaio, Mercoledi

Tempo Temperatura Precipitazioni Vento Pressione Umidità
00:00 +24°C° 0.3 mm 3 m/s 753 mm Hg 59%
01:00 +22°C° 0.3 mm 3 m/s 753 mm Hg 67%
02:00 +21°C° 0 mm 2 m/s 753 mm Hg 71%
03:00 +21°C° 0.7 mm 3 m/s 753 mm Hg 76%
04:00 +21°C° 0.7 mm 3 m/s 753 mm Hg 81%
05:00 +20°C° 0.7 mm 3 m/s 753 mm Hg 86%
06:00 +21°C° 1.1 mm 3 m/s 754 mm Hg 83%
07:00 +22°C° 1.1 mm 3 m/s 754 mm Hg 79%
08:00 +23°C° 1.1 mm 2 m/s 754 mm Hg 76%
09:00 +26°C° 0.5 mm 2 m/s 754 mm Hg 69%
10:00 +28°C° 0.5 mm 2 m/s 754 mm Hg 62%
11:00 +30°C° 0.5 mm 2 m/s 754 mm Hg 56%
12:00 +29°C° 0.5 mm 3 m/s 754 mm Hg 58%
13:00 +28°C° 0.5 mm 4 m/s 754 mm Hg 61%
14:00 +27°C° 0.5 mm 5 m/s 753 mm Hg 63%
15:00 +26°C° 0.2 mm 5 m/s 754 mm Hg 65%
16:00 +26°C° 0.2 mm 4 m/s 754 mm Hg 67%
17:00 +25°C° 0.2 mm 4 m/s 754 mm Hg 69%
18:00 +23°C° 0 mm 4 m/s 754 mm Hg 75%
19:00 +22°C° 0 mm 3 m/s 755 mm Hg 81%
20:00 +21°C° 0 mm 2 m/s 756 mm Hg 87%
21:00 +20°C° 0 mm 2 m/s 756 mm Hg 89%
22:00 +20°C° 0 mm 2 m/s 756 mm Hg 91%
23:00 +19°C° 0 mm 2 m/s 756 mm Hg 94%

Domani, 21 Gennaio, Giovedi

Tempo Temperatura Precipitazioni Vento Pressione Umidità
00:00 +19°C° 0 mm 2 m/s 756 mm Hg 94%
01:00 +19°C° 0 mm 3 m/s 756 mm Hg 94%
02:00 +19°C° 0 mm 3 m/s 756 mm Hg 95%
03:00 +19°C° 0 mm 3 m/s 756 mm Hg 95%
04:00 +19°C° 0 mm 3 m/s 756 mm Hg 95%
05:00 +19°C° 0 mm 3 m/s 756 mm Hg 96%
06:00 +20°C° 0 mm 3 m/s 756 mm Hg 91%
07:00 +21°C° 0 mm 3 m/s 756 mm Hg 86%
08:00 +21°C° 0 mm 3 m/s 756 mm Hg 81%
09:00 +23°C° 0 mm 4 m/s 756 mm Hg 76%
10:00 +25°C° 0 mm 4 m/s 756 mm Hg 71%
11:00 +26°C° 0 mm 5 m/s 756 mm Hg 66%
12:00 +26°C° 0 mm 5 m/s 755 mm Hg 67%
13:00 +25°C° 0 mm 5 m/s 755 mm Hg 67%
14:00 +25°C° 0 mm 5 m/s 755 mm Hg 67%
15:00 +25°C° 0 mm 5 m/s 755 mm Hg 71%
16:00 +23°C° 0 mm 5 m/s 755 mm Hg 74%
17:00 +22°C° 0 mm 5 m/s 755 mm Hg 78%
18:00 +21°C° 0 mm 5 m/s 755 mm Hg 80%
19:00 +21°C° 0 mm 5 m/s 755 mm Hg 83%
20:00 +20°C° 0 mm 5 m/s 755 mm Hg 85%
21:00 +20°C° 0 mm 5 m/s 755 mm Hg 85%
22:00 +20°C° 0 mm 5 m/s 755 mm Hg 84%
23:00 +20°C° 0 mm 5 m/s 755 mm Hg 84%

Dopodomani, 22 Gennaio, Venerdi

Tempo Temperatura Precipitazioni Vento Pressione Umidità
00:00 +20°C° 0 mm 4 m/s 755 mm Hg 84%
01:00 +20°C° 0 mm 4 m/s 755 mm Hg 85%
02:00 +19°C° 0 mm 4 m/s 754 mm Hg 85%
03:00 +19°C° 0 mm 4 m/s 754 mm Hg 85%
04:00 +19°C° 0 mm 4 m/s 754 mm Hg 86%
05:00 +19°C° 0 mm 4 m/s 754 mm Hg 86%
06:00 +20°C° 0 mm 5 m/s 753 mm Hg 83%
07:00 +20°C° 0 mm 5 m/s 753 mm Hg 80%
08:00 +21°C° 0 mm 5 m/s 753 mm Hg 77%
09:00 +23°C° 0 mm 5 m/s 753 mm Hg 70%
10:00 +25°C° 0 mm 5 m/s 752 mm Hg 64%
11:00 +27°C° 0 mm 5 m/s 751 mm Hg 57%
12:00 +27°C° 0 mm 6 m/s 751 mm Hg 57%
13:00 +28°C° 0 mm 6 m/s 750 mm Hg 57%
14:00 +28°C° 0 mm 6 m/s 749 mm Hg 57%
15:00 +27°C° 0 mm 6 m/s 749 mm Hg 60%
16:00 +26°C° 0 mm 6 m/s 748 mm Hg 62%
17:00 +24°C° 0 mm 6 m/s 748 mm Hg 65%
18:00 +23°C° 0 mm 6 m/s 748 mm Hg 70%
19:00 +21°C° 0 mm 6 m/s 748 mm Hg 75%
20:00 +20°C° 0 mm 6 m/s 748 mm Hg 80%
21:00 +20°C° 0 mm 5 m/s 748 mm Hg 83%
22:00 +19°C° 0 mm 4 m/s 748 mm Hg 86%
23:00 +19°C° 0 mm 3 m/s 748 mm Hg 89%

23 Gennaio, Sabato

Tempo Temperatura Precipitazioni Vento Pressione Umidità
00:00 +18°C° 0 mm 3 m/s 747 mm Hg 90%
01:00 +18°C° 0 mm 2 m/s 747 mm Hg 92%
02:00 +19°C° 0 mm 1 m/s 746 mm Hg 94%
03:00 +19°C° 0 mm 1 m/s 746 mm Hg 94%
04:00 +18°C° 0 mm 1 m/s 745 mm Hg 94%
05:00 +17°C° 0 mm 2 m/s 745 mm Hg 94%
06:00 +19°C° 0 mm 2 m/s 746 mm Hg 86%
07:00 +21°C° 0 mm 3 m/s 746 mm Hg 77%
08:00 +22°C° 0 mm 3 m/s 746 mm Hg 69%
09:00 +23°C° 0 mm 4 m/s 746 mm Hg 66%
10:00 +26°C° 0 mm 5 m/s 746 mm Hg 62%
11:00 +27°C° 0 mm 6 m/s 746 mm Hg 59%
12:00 +27°C° 0 mm 6 m/s 746 mm Hg 59%
13:00 +27°C° 0 mm 6 m/s 746 mm Hg 58%
14:00 +27°C° 0 mm 6 m/s 746 mm Hg 58%
15:00 +26°C° 0 mm 6 m/s 746 mm Hg 60%
16:00 +24°C° 0 mm 7 m/s 746 mm Hg 62%
17:00 +23°C° 0 mm 7 m/s 746 mm Hg 64%
18:00 +22°C° 0 mm 6 m/s 747 mm Hg 69%
19:00 +20°C° 0 mm 5 m/s 748 mm Hg 74%
20:00 +19°C° 0 mm 4 m/s 748 mm Hg 79%
21:00 +18°C° 0 mm 4 m/s 748 mm Hg 82%
22:00 +17°C° 0 mm 3 m/s 749 mm Hg 85%
23:00 +17°C° 0 mm 2 m/s 749 mm Hg 87%

24 Gennaio, Domenica

Tempo Temperatura Precipitazioni Vento Pressione Umidità
00:00 +16°C° 0 mm 3 m/s 749 mm Hg 87%
01:00 +16°C° 0 mm 3 m/s 749 mm Hg 87%
02:00 +14°C° 0 mm 3 m/s 749 mm Hg 86%
03:00 +16°C° 0 mm 3 m/s 749 mm Hg 86%
04:00 +16°C° 0 mm 3 m/s 749 mm Hg 85%
05:00 +16°C° 0 mm 3 m/s 749 mm Hg 84%
06:00 +18°C° 0 mm 3 m/s 749 mm Hg 80%
07:00 +19°C° 0 mm 3 m/s 750 mm Hg 76%
08:00 +21°C° 0 mm 3 m/s 750 mm Hg 73%
09:00 +21°C° 0 mm 4 m/s 750 mm Hg 68%
10:00 +22°C° 0 mm 5 m/s 750 mm Hg 64%
11:00 +23°C° 0 mm 5 m/s 750 mm Hg 59%
12:00 +23°C° 0 mm 5 m/s 750 mm Hg 55%
13:00 +24°C° 0 mm 6 m/s 750 mm Hg 51%
14:00 +26°C° 0 mm 6 m/s 750 mm Hg 47%
15:00 +24°C° 0 mm 6 m/s 750 mm Hg 51%
16:00 +23°C° 0 mm 7 m/s 750 mm Hg 56%
17:00 +22°C° 0 mm 7 m/s 750 mm Hg 61%
18:00 +21°C° 0 mm 6 m/s 750 mm Hg 66%
19:00 +20°C° 0 mm 5 m/s 751 mm Hg 71%
20:00 +18°C° 0 mm 4 m/s 751 mm Hg 76%
21:00 +18°C° 0 mm 3 m/s 751 mm Hg 79%
22:00 +17°C° 0 mm 2 m/s 752 mm Hg 82%
23:00 +16°C° 0 mm 1 m/s 752 mm Hg 85%

25 Gennaio, Lunedi

Tempo Temperatura Precipitazioni Vento Pressione Umidità
00:00 +16°C° 0 mm 1 m/s 752 mm Hg 84%
01:00 +16°C° 0 mm 1 m/s 752 mm Hg 84%
02:00 +16°C° 0 mm 1 m/s 752 mm Hg 84%
03:00 +16°C° 0 mm 1 m/s 752 mm Hg 86%
04:00 +15°C° 0 mm 1 m/s 752 mm Hg 88%
05:00 +15°C° 0 mm 1 m/s 752 mm Hg 90%
06:00 +16°C° 0 mm 2 m/s 753 mm Hg 82%
07:00 +18°C° 0 mm 2 m/s 753 mm Hg 73%
08:00 +20°C° 0 mm 2 m/s 754 mm Hg 64%
09:00 +20°C° 0.1 mm 3 m/s 753 mm Hg 63%
10:00 +21°C° 0.1 mm 3 m/s 753 mm Hg 62%
11:00 +21°C° 0.1 mm 4 m/s 753 mm Hg 61%
12:00 +21°C° 0 mm 4 m/s 753 mm Hg 61%
13:00 +21°C° 0 mm 4 m/s 753 mm Hg 61%
14:00 +21°C° 0 mm 4 m/s 752 mm Hg 61%
15:00 +21°C° 0 mm 4 m/s 752 mm Hg 60%
16:00 +21°C° 0 mm 4 m/s 752 mm Hg 59%
17:00 +21°C° 0 mm 5 m/s 752 mm Hg 58%
18:00 +19°C° 0 mm 4 m/s 753 mm Hg 64%
19:00 +18°C° 0 mm 4 m/s 753 mm Hg 70%
20:00 +16°C° 0 mm 3 m/s 753 mm Hg 77%
21:00 +16°C° 0 mm 3 m/s 754 mm Hg 79%
22:00 +16°C° 0 mm 2 m/s 754 mm Hg 82%
23:00 +15°C° 0 mm 2 m/s 754 mm Hg 85%
Mostrare altro